Location: Peterborough
(44.3091°N, 78.3197°W)
Time: 09:05:48
(UTC-04:00)

A-11 Canister half - Pass Details

Date: 12 September 2024
Orbit: 1515 x 1684 km, 47.2° (Epoch: 02 October)

Event Time Altitude Azimuth Distance (km) Brightness Sun altitude
Exits shadow 04:23:57 14° 179° (S) 3,475 10.5 -25.1°
Drops below altitude 10° 04:25:07 10° 174° (S) 3,760 10.8 -24.9°
Sets 04:28:48 0° 163° (SSE) 4,768 11.4 -24.4°
